[Date Prev][Date Next][Thread Prev][Thread Next] - [Date Index][Thread Index][Author Index]
2 Line ISS Keps 4-26
- Subject: [sarex] 2 Line ISS Keps 4-26
- From: "Dave Larsen PhD" <doc@xxxxxxxxxxx>
- Date: Tue, 25 Apr 2006 19:24:42 -0700
ISS
1 25544U 98067A 06115.78674622 .00011790 00000-0 79324-4 0 8036
2 25544 051.6383 097.2077 0008955 149.0846 275.7739 15.75650172424907
----
Via the sarex mailing list at AMSAT.ORG courtesy of AMSAT-NA.
To unsubscribe, send "unsubscribe sarex" to Majordomo@amsat.org
AMSAT Home